Weather in Stamford

United States     41°03′37″N   73°32′34″W
temp.,
°C
wind,
m/s
gust,
m/s
humid.,
%
clouds,
%
prec.,
mm/h
press.,
hPa
HPBL,
m
16 may, sun
sun1623:00+16wsw475491 0.0 1023111
02:00+15w2462100 0.0 102461
05:00+14w3664100 0.0 1024128
08:00+14wsw1171100 0.2 102664
11:00+18sw2351100 0.1 1025385
14:00+20ssw6735100 0.3 1024807
17:00+20sw6839100 0.0 1023914
20:00+15nnw117899 0.4 102545
17 may, mon
mon1723:00+14nnw117961 0.1 102512
02:00+13n22783 0.1 102467
05:00+12nw23773 0.0 102586
08:00+14nw12670 0.0 1026157
11:00+18sw12550 0.0 1026588
14:00+19sse23474 0.0 1025999
17:00+21ssw673913 0.0 1024827
20:00+18ssw58475 0.0 1025176
18 may, tue
tue1823:00+16sw58602 0.0 1026135
02:00+15wsw3568100 0.0 102575
05:00+15wsw477299 0.0 1025189
08:00+16wsw476866 0.0 1027258
11:00+19wsw45545 0.0 1026612
14:00+21w354868 0.0 1024786
17:00+20sw5656100 0.0 1023504
20:00+18sw466459 0.0 102364
19 may, wed
wed1923:00+17wnw237337 0.0 102438
02:00+16nw24785 0.0 102467
05:00+15nw35785 0.0 102585
08:00+17nnw24700 0.0 1026111
11:00+21wnw24545 0.0 1026499
14:00+23nw13490 0.0 1025854
17:00+25nnw24450 0.0 1024914
20:00+22n34560 0.0 102534
20 may, thu
thu2023:00+20wsw11620 0.0 102512
02:00+19nnw22640 0.0 102626
05:00+17nne22700 0.0 102718
08:00+17ene457610 0.0 1029157
11:00+17ene567698 0.0 1030273
14:00+19ene5566100 0.0 1029449
17:00+21se4655100 0.0 1028196
20:00+18sse4653100 0.0 1029158